Location: Dollis Hill
(51.5500°N, 0.2333°W)
Time: 15:30:23
(UTC+00:00)

Daily predictions for brighter satellites

Satellite Brightness Start Highest point End
(mag) Time Altitude Azimuth Time Altitude Azimuth Time Altitude Azimuth
Cosmos 1818 4.1 18:49:32 10° S 18:54:33 39° ESE 18:59:37 10° NE
GEOS 3 Rocket 3.8 18:49:34 10° SE 18:54:48 81° SW 19:00:02 10° NW
Cosmos 1626 2.4 18:52:53 10° NNW 18:55:50 54° W 18:58:46 10° S
Cosmos 1328 Rocket 4.0 18:53:02 10° N 18:57:05 39° ENE 19:01:08 10° SE
SL-16 R/B 3.4 18:52:33 10° SW 18:58:02 49° NW 19:03:33 10° NNE
Cosmos 1802 Rocket 4.2 18:51:57 10° SSW 18:58:08 81° W 19:04:28 10° N
Meteor 1-5 Rocket 4.3 18:53:10 10° S 18:58:47 70° E 19:04:37 10° NNE
SJ-6B 2.6 18:55:51 10° SSE 18:59:28 71° ENE 19:03:04 10° N
Meteor 1-4 Rocket 3.2 18:58:27 10° NNE 19:00:39 22° ENE 19:02:50 10° SE
Cosmos 1340 2.4 18:58:43 10° S 19:01:55 54° E 19:05:08 10° NNE
Cosmos 1726 1.8 19:00:33 10° SSE 19:03:11 39° E 19:05:52 10° NNE
SL-08 R/B 3.5 18:58:19 10° NNE 19:03:13 59° ESE 19:08:04 10° S
Cosmos 2369 Rocket 4.3 19:00:31 10° N 19:03:40 15° NNE 19:06:49 10° ENE
ARGOS Delta rocket 4.0 18:58:45 10° SSE 19:03:45 59° ENE 19:08:31 10° N
NOSS 2-1 (E) 3.5 19:01:53 10° NW 19:05:27 65° NE 19:10:14 10° SE
ADEOS 3.7 19:01:34 10° SSE 19:06:48 87° WSW 19:12:03 10° NNW
Cosmos 2233 Rocket 3.9 19:00:46 10° S 19:06:51 72° E 19:13:00 10° NNE
Helios 1A 3.0 19:07:42 10° NNE 19:11:42 53° ESE 19:15:40 10° S
Cosmos 1743 2.5 19:09:03 10° S 19:12:35 64° E 19:16:09 10° NNE
Cosmos 2322 4.0 19:07:32 10° S 19:12:52 45° ESE 19:18:14 10° NE
Cosmos 1400 Rocket 2.7 19:09:19 10° N 19:13:10 67° ENE 19:16:57 10° SSE
Cosmos 1066 Rocket 4.3 19:07:26 10° N 19:13:20 75° ENE 19:19:10 10° SSE
CARTOSAT-1 3.8 19:09:14 10° SE 19:13:21 51° ENE 19:17:29 10° N
ATLAS 2AS CENTAUR R/B 3.7 19:06:34 10° WSW 19:13:34 50° NNW 19:20:20 10° NE
Cosmos 2061 Rocket 4.1 19:07:15 10° S 19:13:41 84° E 19:20:10 10° N
NOSS 2-1 (D) 3.3 19:11:02 10° NW 19:14:37 79° NE 19:19:25 10° SE
Meteor PRIRODA 3.6 19:13:35 10° S 19:16:52 71° WSW 19:20:11 10° NNW
TSX-5 3.2 19:14:33 10° NW 19:17:42 84° WSW 19:20:53 10° SSE
Cosmos 1151 Rocket 3.8 19:14:12 10° NNW 19:18:23 55° W 19:22:32 10° S
Resurs 1-3 4.2 19:16:58 10° S 19:21:15 60° W 19:25:33 10° NNW
Cosmos 2333 4.5 19:15:32 10° SW 19:21:19 78° WNW 19:27:07 10° NNE
SKYMED 3 4.4 19:17:12 10° NNE 19:21:22 77° ESE 19:25:28 10° S
Cosmos 1315 Rocket 4.3 19:19:21 10° NNE 19:22:21 20° ENE 19:24:37 13° ESE
NOSS 8 (A) 4.4 19:19:33 10° SW 19:23:25 85° NW 19:26:30 10° NE
Cosmos 1943 Rocket 2.7 19:18:55 10° NNW 19:24:08 42° NE 19:28:44 13° ESE
CSL-04 Debris 4.3 19:19:49 10° SSE 19:25:13 64° ENE 19:30:39 10° N
SPOT 1/Viking Rocket 4.0 19:20:43 10° S 19:25:52 67° WSW 19:31:02 10° NNW
Kosmos-1783 3.2 19:28:12 10° SSW 19:30:12 24° SE 19:30:26 24° ESE
Cosmos 1536 3.6 19:29:09 10° SSE 19:32:25 28° E 19:35:45 10° NNE
COSMOS 2428 2.8 19:28:17 10° S 19:33:47 53° ESE 19:39:21 10° NE
CZ-4 R/B 1.6 19:30:04 10° S 19:33:51 69° WSW 19:37:44 10° NNW
Okean 3 Rocket 4.2 19:30:21 10° SSE 19:34:27 36° E 19:38:30 10° NNE
USA 308 2.8 19:34:15 10° SW 19:34:41 12° SSW 19:34:41 12° SSW
Cosmos 1814 Rocket 4.2 19:31:00 10° S 19:36:06 51° ESE 19:41:12 10° NNE
Okean O Rocket 1.8 19:34:43 10° SE 19:38:57 54° ENE 19:43:18 10° N
Sich 1 4.4 19:39:36 17° ESE 19:40:34 18° E 19:43:30 10° NE
Cosmos 1515 Rocket 3.6 19:41:34 10° N 19:45:50 56° ENE 19:49:29 14° SSE
GRACE-FO 1 4.4 19:42:41 10° S 19:46:12 73° E 19:49:44 10° N
GRACE-FO 2 4.4 19:43:04 10° S 19:46:36 74° E 19:50:08 10° N
Resurs 01 Rocket 1.8 19:43:08 10° S 19:47:34 78° WSW 19:52:01 10° NNW
USA 276 2.0 19:45:25 10° W 19:48:13 54° S 19:49:14 31° SE
Cosmos 2278 Rocket 2.2 19:44:12 10° NNW 19:49:54 81° ENE 19:54:37 15° SSE
Lacrosse 4 Rocket 2.9 19:47:39 10° NW 19:51:37 35° WSW 19:55:33 10° S
USA 267 3.7 19:47:17 12° E 19:53:15 60° N 19:59:41 10° WNW
Terra 3.0 19:51:20 19° E 19:53:21 26° ENE 19:57:13 10° N
Cosmos 1356 Rocket 3.3 19:49:12 10° N 19:53:25 82° ENE 19:57:13 12° SSE
USA 306 2.8 19:51:34 10° SW 19:54:37 39° SE 19:56:02 26° E
BlueWalker 3 2.8 19:51:20 10° WNW 19:54:50 38° SSW 19:56:57 20° SSE
CZ-4B R/B 3.4 19:49:53 10° S 19:55:23 76° WSW 20:00:48 10° NNW
Meteor 1-14 Rocket 4.1 19:52:16 10° S 19:57:47 78° E 20:03:20 10° NNE
Okean-O 2.9 19:55:32 21° SE 19:58:13 50° ENE 20:02:30 10° N
CZ-4B R/B 4.2 19:54:49 10° SSW 19:58:24 39° W 20:02:11 10° NNW
USA 59 Rocket 0.7 19:56:46 10° NW 20:00:26 50° SW 20:04:16 16° SSE
Meteor 1-11 Rocket 3.9 19:58:07 10° SSE 20:03:30 48° E 20:08:50 10° NNE
Cosmos 1805 4.4 20:04:25 23° ENE 20:04:25 23° ENE 20:06:57 10° NE
Cosmos 1766 Rocket 3.9 20:00:21 10° SSW 20:04:41 68° WNW 20:09:05 10° N
Cosmos 1500 Rocket 4.2 20:04:05 26° SE 20:05:31 33° E 20:09:27 10° NNE
SWARM A 4.3 20:05:11 24° SSE 20:07:07 59° E 20:10:35 10° N
Spot 2 Rocket 4.5 20:05:32 23° E 20:07:28 30° ENE 20:11:50 10° N
Cosmos 1842 3.9 20:04:56 10° NNW 20:08:27 51° W 20:11:57 10° S
Cosmos 2360 Rocket 4.1 20:05:32 10° WSW 20:10:33 32° NW 20:15:36 10° NNE
Cosmos 1743 Rocket 4.4 20:10:32 28° E 20:10:53 29° E 20:14:36 10° NNE
USA 290 3.0 20:09:30 10° NW 20:12:40 49° WSW 20:14:23 23° S
Cosmos 1733 2.8 20:10:44 23° S 20:12:40 63° E 20:16:07 10° NNE
Cosmos 2298 Rocket 4.4 20:08:03 10° NNW 20:13:12 48° ENE 20:15:37 29° ESE
USA 32 4.2 20:10:10 10° N 20:15:19 54° ENE 20:18:00 27° SE
NOSS 3-4 (A) 4.4 20:09:45 10° NW 20:15:53 44° NNE 20:20:36 20° E
NOSS 3-4 (C) 4.4 20:09:51 10° NW 20:15:58 44° NNE 20:20:41 20° E
Cosmos 2150 Rocket 4.3 20:11:57 10° NNW 20:17:00 50° ENE 20:19:10 31° ESE
ACS3 Solar Sail 1.9 20:13:17 10° SSE 20:19:38 84° WSW 20:26:06 10° NNW
Cosmos 2237 Rocket 2.3 20:14:56 10° S 20:20:19 50° ESE 20:25:46 10° NE
MetOp-B 4.1 20:17:25 24° SSE 20:20:39 70° ENE 20:26:01 10° NNW
Cosmos 1408 Rocket 3.5 20:18:57 22° S 20:21:39 61° E 20:26:01 10° NNE
SPOT 5 2.6 20:19:20 27° SSE 20:21:51 75° ENE 20:26:22 10° NNW
Cosmos 1570 Rocket 4.2 20:16:52 10° S 20:21:57 49° ESE 20:27:02 10° NNE
Cosmos 1707 3.7 20:19:23 10° NNW 20:22:45 41° W 20:25:43 13° SSW
USA 186 4.2 20:21:42 10° SSW 20:24:17 22° W 20:26:56 10° NW
IRS-1C Rocket 4.3 20:22:23 31° SE 20:24:45 56° ENE 20:29:55 10° N
Cosmos 158 Rocket 4.1 20:22:18 24° SSE 20:24:50 44° ESE 20:29:28 10° NE
IRS-1A Rocket 4.3 20:26:04 28° SE 20:29:08 67° ENE 20:34:49 10° NNW
PSLV R/B 3.8 20:27:45 30° S 20:29:22 64° WSW 20:32:54 10° NNW
Cosmos 2219 Rocket 3.7 20:24:35 10° WSW 20:29:53 38° NW 20:35:11 10° NNE
BREEZE-M DEB (TANK) 2.7 20:29:01 10° WSW 20:30:36 43° SW 20:30:36 43° SW
Cosmos 1428 Rocket 4.4 20:27:32 10° N 20:33:42 82° E 20:37:29 25° SSE
Cosmos 2333 Rocket 4.4 20:30:35 10° W 20:35:23 26° NW 20:40:12 10° NNE
Meteor 2-10 4.2 20:32:01 10° S 20:37:35 90° WNW 20:43:21 10° NNE
Cosmos 1818 4.4 20:32:40 10° WSW 20:38:02 53° NW 20:43:25 10° NE
ERS-1 Rocket 2.9 20:37:22 39° SE 20:39:11 69° ENE 20:44:12 10° N
Ariane Rocket 3.4 20:38:38 38° ESE 20:39:50 45° ENE 20:44:40 10° N
Cosmos 1125 Rocket 3.8 20:37:37 10° NNW 20:42:45 62° WSW 20:45:24 28° S
MOS 1 Rocket 3.4 20:41:41 35° SSE 20:43:51 88° ENE 20:49:09 10° NNW
Aureole 3 Rocket 3.8 20:38:12 10° S 20:45:24 77° E 20:50:31 10° NNE
Cosmos 1805 Rocket 3.4 20:44:51 53° SSE 20:45:42 69° E 20:50:01 10° NNE
Nadezhda 4 Rocket 4.4 20:42:11 10° NNW 20:48:19 61° W 20:53:41 14° S
Cosmos 2195 Rocket 4.4 20:42:18 10° N 20:48:28 88° W 20:51:47 29° S
Cosmos 1980 3.6 20:43:38 10° SSW 20:49:19 83° ESE 20:55:03 10° NNE
Cosmos 2369 Rocket 2.9 20:43:58 10° NNW 20:49:22 40° NE 20:50:59 33° E
Cosmos 1092 Rocket 3.9 20:46:35 10° N 20:52:56 84° E 20:55:53 35° SSE
Cosmos 839 Rocket 4.4 20:47:03 10° SSW 20:55:37 74° SE 21:02:26 10° NE
SPOT 3 Rocket 3.7 20:54:51 49° ESE 20:55:50 58° ENE 21:00:53 10° N
Cosmos 1862 Rocket 4.1 20:51:47 10° N 20:55:48 43° ENE 20:55:48 43° ENE
Cosmos 2026 Rocket 3.9 20:50:28 10° N 20:56:47 90° SSE 20:59:36 35° S
Cosmos 1315 Rocket 3.7 20:54:51 10° NNW 20:58:40 45° W 20:59:49 35° SW
Cosmos 1707 Rocket 3.7 20:56:34 10° N 21:00:51 55° ENE 21:00:51 55° ENE
Cosmos 1975 3.5 21:03:30 43° NE 21:03:30 43° NE 21:06:18 10° NNE
Cosmos 773 Rocket 4.3 21:06:38 47° E 21:06:38 47° E 21:11:05 10° NNE
ATLAS 2AS CENTAUR R/B 4.3 20:59:51 10° WNW 21:06:02 31° N 21:12:01 10° NE
Cosmos 1943 Rocket 3.0 21:02:44 10° NW 21:07:54 42° WSW 21:10:15 28° SSW
Cosmos 1634 Rocket 3.9 21:06:53 42° SSE 21:09:07 72° E 21:15:26 10° NNE
Cosmos 2208 Rocket 3.9 21:06:27 27° SSW 21:09:22 86° ESE 21:14:45 10° NNE
NOSS 0 Rocket 4.4 21:05:21 10° SW 21:11:32 63° NW 21:17:46 10° NNE
Okean O Rocket 3.9 21:12:09 10° SW 21:15:31 21° W 21:18:55 10° NW
Sich 1 3.6 21:16:14 39° SW 21:17:31 55° WNW 21:21:46 10° N
COSMOS 2428 4.2 21:13:00 10° WSW 21:18:16 37° NW 21:23:35 10° NNE
SL-16 R/B 3.0 21:20:09 36° ENE 21:20:09 36° ENE 21:23:56 10° NE
SL-14 R/B 4.0 21:15:05 10° NNW 21:18:43 45° W 21:18:44 45° W
Meteor 2-12 Rocket 4.5 21:14:38 10° NNW 21:20:48 76° W 21:22:51 44° S
USA 306 4.4 21:23:37 10° W 21:25:09 25° W 21:25:09 25° W
NOSS 3-3 (C) 3.6 21:28:03 65° S 21:28:41 71° SE 21:35:09 10° NE
Cosmos 2228 Rocket 3.2 21:24:31 10° NNW 21:28:58 77° WNW 21:28:58 77° WNW
Cosmos 2142 Rocket 4.4 21:29:56 59° ESE 21:30:10 60° E 21:36:11 10° NNE
Cosmos 2263 4.4 21:24:58 10° NNW 21:30:39 56° NE 21:31:09 54° ENE
Terra 2.3 21:30:01 47° SW 21:30:40 51° W 21:35:18 10° NNW
Celestis-02/Orion 38 4.5 21:25:31 10° NNE 21:30:11 68° ENE 21:30:11 68° ENE
Cosmos 2278 Rocket 4.2 21:29:17 10° NW 21:33:19 20° W 21:36:28 13° SW
MetOp-A 4.5 21:34:24 44° NE 21:34:24 44° NE 21:38:16 10° N
USA 267 3.1 21:34:37 58° SE 21:36:06 86° SSW 21:42:42 10° WNW
ARIANE 5 R/B 4.3 21:40:25 24° NE 21:40:25 24° NE 21:42:55 10° N
Cosmos 2180 Rocket 4.5 21:43:46 65° ESE 21:43:59 66° E 21:50:19 10° NNE
NOSS 3-3 (A) 3.7 21:42:20 39° SW 21:44:37 89° SE 21:51:13 10° NE
Cosmos 1656 Rocket 3.6 21:39:08 10° NNW 21:44:48 75° WSW 21:45:02 74° SW
Spot 2 Rocket 4.1 21:45:40 45° WSW 21:46:13 47° W 21:51:06 10° NNW
BREEZE-M DEB (TANK) 3.4 21:34:57 10° W 21:48:21 68° SSW 21:48:29 68° S
Cosmos 2279 Rocket 3.9 21:54:00 65° SSW 21:54:58 82° W 22:01:14 10° N
SL-08 ROCKET BODY 4.3 21:49:56 10° N 21:56:09 76° E 21:56:16 76° E
Okean 1-7 4.1 21:58:33 10° NNW 22:01:30 42° NNW 22:01:30 42° NNW
Cosmos 2237 Rocket 3.5 21:59:22 10° WSW 22:04:35 37° NW 22:09:48 10° NNE
ACS3 Solar Sail 4.1 22:00:27 10° SW 22:04:40 18° W 22:08:54 10° NW
NOSS 3-4 (A) 3.7 22:00:33 10° NW 22:07:16 74° SW 22:08:00 68° S
NOSS 3-4 (C) 3.7 22:00:39 10° NW 22:07:23 75° SW 22:08:06 69° S
Cosmos 2297 4.0 22:03:41 10° NW 22:08:55 56° W 22:08:55 56° W
Cosmos 1607 3.9 22:18:07 80° NE 22:18:07 80° NE 22:24:12 10° NE
Ariane Rocket 4.3 22:18:46 31° W 22:18:55 31° W 22:23:24 10° NNW
Cosmos 2369 Rocket 3.0 22:28:03 10° NW 22:32:45 44° W 22:32:45 44° W
USA 215 3.4 22:36:20 10° ENE 22:51:07 - WSW 22:41:42 63° ENE
Cosmos 2266 Rocket 4.4 22:36:55 10° NNW 22:42:56 54° W 22:42:56 54° W
ATLAS 2AS CENTAUR R/B 3.8 22:52:18 10° NW 22:58:45 38° NNE 23:01:46 26° ENE
SL-16 R/B 3.2 23:01:58 39° WNW 23:02:45 41° NW 23:08:07 10° NNE
Cosmos 1943 4.1 23:27:44 46° N 23:27:44 46° N 23:31:47 10° NNE
Cosmos 1697 Rocket 3.8 23:36:58 10° NNW 23:41:47 38° NE 23:41:47 38° NE
